This demonstration page uses our WeatherBlox Daily Observations layout. Learn more.

Left ArrowRight Arrow

38.20091, -84.87328

Hourly Observations for October 1, 2021

Temp ( °F °C ) Dew Point ( °F °C ) Humidity (%) Winds ( mph kmh ) Pressure ( in mb ) Visibility ( mi km ) Precip ( " mm )
12:53 am 00:53 Clear 61 16.1 56 13.3 84 84 N N/A 30.18 1022 10 16 N/A
1:53 am 01:53 Clear 57 13.9 55 12.8 93 93 N N/A 30.18 1022 10 16 N/A
2:53 am 02:53 Clear 57 13.9 54 12.2 90 90 N N/A 30.18 1022 10 16 N/A
3:53 am 03:53 Clear 54 12.2 52 11.1 93 93 N N/A 30.17 1022 10 16 N/A
4:53 am 04:53 Clear 54 12.2 52 11.1 93 93 N N/A 30.18 1022 10 16 N/A
5:53 am 05:53 Clear 54 12.2 52 11.1 93 93 N N/A 30.19 1022 10 16 N/A
6:53 am 06:53 Clear 54 12.2 52 11.1 93 93 N N/A 30.20 1023 10 16 N/A
7:53 am 07:53 Sunny 55 12.8 53 11.7 93 93 N N/A 30.22 1023 10 16 N/A
8:53 am 08:53 Sunny 59 15 55 12.8 87 87 ENE 3 6 30.23 1024 10 16 N/A
9:53 am 09:53 Sunny 63 17.2 57 13.9 81 81 N N/A 30.24 1024 10 16 N/A
10:53 am 10:53 Sunny 67 19.4 57 13.9 71 71 E 3 6 30.24 1024 10 16 N/A
11:53 am 11:53 Sunny 73 22.8 57 13.9 57 57 ESE 8 13 30.23 1024 10 16 N/A
12:53 pm 12:53 Sunny 77 25 54 12.2 45 45 ESE 9 15 30.23 1024 10 16 N/A
1:53 pm 13:53 Sunny 76 24.4 50 10 40 40 ESE 6 9 30.22 1023 10 16 N/A
2:53 pm 14:53 Sunny 77 25 50 10 39 39 VRB 3 6 30.19 1023 10 16 N/A
3:53 pm 15:53 Sunny 78 25.6 51 10.6 39 39 E 3 6 30.18 1022 10 16 N/A
4:53 pm 16:53 Sunny 79 26.1 52 11.1 39 39 ESE 7 11 30.17 1022 10 16 N/A
5:53 pm 17:53 Sunny 77 25 49 9.4 37 37 E 7 11 30.16 1022 10 16 N/A
6:53 pm 18:53 Sunny 74 23.3 49 9.4 41 41 E 3 6 30.17 1022 10 16 N/A
7:53 pm 19:53 Clear 63 17.2 54 12.2 73 73 N N/A 30.18 1022 10 16 N/A
8:53 pm 20:53 Clear 60 15.6 54 12.2 80 80 N N/A 30.19 1022 10 16 N/A
9:53 pm 21:53 Clear 57 13.9 53 11.7 87 87 N N/A 30.18 1022 10 16 N/A
10:53 pm 22:53 Clear 57 13.9 53 11.7 87 87 N N/A 30.18 1022 10 16 N/A
11:53 pm 23:53 Clear 57 13.9 53 11.7 87 87 N N/A 30.17 1022 10 16 N/A

Powered by AerisWeather